Volver al catálogo

MAST

ActivoCienciaSSO
NORAD 31126·PAYLOAD·🇺🇸 United States

Lanzado Apr 17, 2007 desde Baikonur Cosmodrome

Loading…

Próximos Pases (próximas 24 horas)

TLE

ActualizadoSource: Space-Track

Época: Sep 14, 2026, 08:13 UTC

1 31126U 07012K   26257.34242945  .00000526  00000-0  10832-3 0  9998
2 31126  98.4410 227.1988 0082442 130.3326 230.5114 14.62781912 31872

Sigue MAST en tiempo real con AllMySat

Download on the App Store